GFSNE_925_spd_000.txt.gz
Wind_Speed
23 17 18 18 19 18 17 17 13 6 7 16 12 19 14 18 22 18 24 19 15 16 16 14 13 11 9 10 13 16 18 18 19 18 19 20 18 17
17 16 20 20 20 20 19 20 21 16 9 15 22 19 18 18 20 17 22 16 12 15 14 13 14 15 14 11 9 9 11 12 13 15 17 17 17 16
19 18 17 19 20 20 20 22 24 20 11 18 20 19 18 18 16 20 19 16 14 16 18 20 21 24 23 22 17 13 11 10 10 11 15 17 16 17
22 23 23 20 21 20 18 21 21 21 21 16 19 20 22 21 21 20 15 15 18 20 21 22 24 22 22 21 22 24 23 20 16 16 17 16 17 17
22 26 26 24 23 22 21 20 19 17 19 19 18 20 22 22 22 21 19 18 16 16 18 18 15 20 23 21 23 24 25 25 24 22 21 19 19 19
22 28 30 28 26 26 20 16 14 19 21 21 21 21 21 21 22 24 24 22 22 18 17 16 17 20 24 26 27 27 27 28 27 27 26 24 23 22
24 26 28 29 29 24 19 20 19 17 17 18 19 20 19 19 17 16 17 15 14 11 10 12 13 13 24 26 27 28 29 30 31 31 31 30 29 27
26 27 28 29 28 24 15 18 21 22 21 19 18 17 20 21 20 18 19 14 4 13 13 13 11 14 15 9 18 24 25 25 30 32 29 29 31 32
26 27 26 24 25 20 16 16 14 14 20 22 21 22 22 25 24 22 19 18 15 15 17 18 16 18 17 13 7 5 7 13 12 14 25 28 29 29
24 27 26 25 22 21 20 18 18 20 19 19 22 27 25 25 23 21 19 18 21 21 18 14 19 22 21 19 18 21 17 17 18 23 22 19 20 22
24 25 25 25 25 23 23 20 20 21 21 22 26 28 27 28 29 24 21 17 13 14 16 20 20 23 24 26 25 23 26 29 29 27 25 28 28 25
23 23 23 23 10 10 12 14 16 17 15 18 21 20 20 21 22 21 24 20 18 14 23 19 16 15 9 22 23 27 28 27 27 27 28 28 25 24
23 24 24 16 15 15 16 18 18 18 20 20 20 21 21 21 21 22 22 25 21 22 23 18 14 11 9 9 15 19 21 22 17 19 23 25 26 27
24 23 24 20 17 19 17 14 13 15 18 18 18 18 18 20 20 18 18 20 24 28 28 19 10 16 17 14 13 17 17 16 17 21 18 17 19 21
23 24 22 15 16 16 14 14 15 13 14 9 12 14 14 16 17 17 18 19 21 23 23 23 24 23 21 17 12 15 15 14 16 16 18 18 19 20
24 22 15 17 15 20 13 12 11 9 10 12 12 14 13 14 15 14 18 20 18 19 18 21 25 24 21 21 19 19 17 11 13 16 15 14 15 15
21 14 16 18 19 16 17 16 15 15 14 14 14 14 14 14 14 15 17 11 11 13 14 16 19 21 23 21 18 20 21 17 16 14 14 17 17 18
14 13 14 16 16 15 14 15 16 15 16 15 14 14 14 15 16 17 18 8 12 13 11 10 12 16 16 18 22 22 19 17 12 11 12 11 16 19
13 14 13 15 16 17 16 16 16 17 17 19 15 14 14 15 15 15 17 15 14 14 9 10 8 13 4 5 6 15 18 15 13 12 10 11 16 14
13 14 15 15 16 16 18 18 21 17 19 20 18 17 16 16 14 14 14 14 14 13 11 14 14 11 5 3 3 1 3 10 12 12 12 12 11 7
14 14 15 15 16 17 19 19 21 19 18 19 20 20 18 15 14 14 13 14 14 14 12 12 10 9 9 8 3 4 2 4 4 8 8 7 6 8
14 15 14 15 15 16 17 18 19 18 19 19 20 22 22 17 16 13 14 13 13 13 12 12 9 7 7 7 8 5 6 2 3 4 4 4 3 2
13 14 14 14 15 14 16 17 18 17 17 18 19 21 22 19 19 14 15 14 13 15 16 16 11 8 5 4 5 2 2 2 1 5 1 7 4 4

GFSNE_925_spd_003.txt.gz
Wind_Speed
18 19 17 16 19 18 18 20 14 7 8 13 20 27 24 19 17 13 16 18 20 19 20 15 13 11 10 12 14 16 20 18 18 18 16 15 14 14
21 19 19 20 17 20 18 20 19 15 9 17 21 24 23 18 16 15 16 12 19 22 22 12 10 10 9 9 11 11 13 16 18 17 16 14 12 11
21 19 20 22 23 25 24 20 18 17 14 23 23 18 17 20 20 15 12 19 14 17 21 16 15 15 14 13 15 13 10 10 10 12 13 13 12 10
17 20 24 25 26 26 26 23 22 20 13 11 13 18 20 21 22 20 11 12 13 22 26 17 15 14 18 16 13 15 17 16 15 13 13 13 11 12
20 23 26 29 30 28 29 27 15 8 12 9 8 16 20 22 27 26 22 17 13 12 10 19 17 18 17 20 17 15 16 16 18 18 18 18 16 16
22 25 28 28 28 28 28 25 19 19 17 14 12 12 16 23 23 18 22 19 17 11 13 10 6 12 15 17 20 20 18 18 19 20 21 22 23 21
24 25 25 25 25 26 22 18 20 15 14 13 15 14 14 16 15 15 17 22 20 13 13 11 9 5 2 10 22 24 22 20 19 19 19 20 22 23
23 27 25 21 20 22 16 14 11 13 15 15 15 12 14 15 18 19 18 16 5 10 20 18 13 10 7 6 8 10 13 11 15 20 22 20 21 21
20 25 25 20 23 21 20 19 17 15 13 13 13 16 18 21 21 22 18 13 13 16 18 20 20 19 15 9 7 9 8 13 13 13 13 13 15 21
20 24 22 23 24 21 23 22 20 20 19 19 19 22 22 23 21 20 19 19 21 21 17 12 21 22 21 19 15 13 15 16 18 20 21 20 19 19
19 21 22 23 22 20 15 17 18 22 21 16 17 17 17 20 21 20 19 15 14 18 23 18 16 18 19 22 22 22 22 22 22 21 22 24 23 24
20 21 22 21 21 15 13 17 19 22 20 20 19 20 21 22 21 19 19 15 15 7 20 11 19 18 7 17 17 17 20 22 22 17 18 22 22 24
20 20 22 22 24 14 17 19 20 18 16 18 19 20 19 17 16 17 20 22 19 17 22 13 12 15 12 12 16 19 17 19 19 20 19 16 18 21
21 23 26 22 17 18 17 16 11 15 15 16 14 16 15 13 14 15 18 18 21 25 26 22 14 21 18 16 13 23 19 14 13 12 14 16 18 17
20 21 18 18 16 16 15 14 13 13 9 10 9 10 11 12 14 15 14 15 17 20 22 22 25 23 21 15 11 14 15 13 11 14 13 12 17 19
21 16 17 17 20 15 17 16 15 15 12 12 12 12 11 11 11 10 13 13 16 15 13 17 20 23 20 22 20 19 20 14 9 13 16 17 15 16
17 15 17 18 17 19 18 18 18 17 16 14 13 13 12 12 10 10 11 10 10 13 14 10 12 16 21 22 17 22 21 22 23 20 18 18 15 15
15 16 15 18 17 16 18 19 20 17 17 17 15 13 14 13 14 13 12 13 9 13 10 10 7 11 15 18 21 22 21 23 22 16 16 13 13 17
16 17 17 17 17 16 18 18 20 19 18 18 18 17 16 16 15 16 16 15 14 16 12 14 4 3 3 2 5 10 19 17 14 13 14 13 15 16
15 16 17 17 17 16 18 18 20 20 20 19 19 20 20 17 15 15 15 14 14 11 11 13 13 8 2 2 2 2 2 6 8 11 12 12 12 14
14 15 16 16 17 16 18 18 18 18 18 19 20 21 22 19 17 15 15 13 13 12 11 14 11 8 6 4 1 3 3 1 2 4 6 7 8 6
12 13 14 14 16 16 16 18 18 19 18 18 18 20 21 21 20 15 15 15 15 15 14 12 9 3 3 3 2 4 4 2 2 3 3 2 3 2
12 13 13 12 15 16 15 16 16 18 18 17 17 19 19 22 20 19 14 14 14 17 17 16 13 9 6 5 3 5 5 5 1 2 3 4 4 4

GFSNE_925_spd_009.txt.gz
Wind_Speed
13 13 13 9 9 12 14 14 8 8 9 15 7 18 16 15 9 9 6 10 10 9 12 14 22 26 22 19 11 8 7 8 8 12 11 10 7 5
14 12 11 10 13 16 19 19 17 16 10 14 21 22 17 17 14 10 3 5 10 10 11 13 13 22 29 31 22 11 7 5 9 10 8 6 4 3
9 10 14 16 17 21 22 23 24 21 13 17 23 24 15 12 14 12 13 4 6 8 12 11 12 15 17 18 14 10 16 3 3 6 11 8 5 5
11 14 19 20 20 21 23 24 22 23 21 17 19 10 8 8 10 13 12 13 11 7 15 18 17 8 17 14 13 10 12 15 6 3 4 5 4 3
14 19 19 18 20 23 24 25 24 23 22 21 19 19 17 14 13 13 13 13 10 10 8 10 14 18 10 19 18 18 15 14 13 7 2 3 3 3
20 19 18 18 21 23 24 19 20 17 14 15 17 16 12 10 6 5 9 13 14 9 7 8 5 11 4 9 16 17 16 13 9 7 6 4 2 3
19 20 19 18 21 20 20 21 22 18 12 11 9 6 7 7 6 3 6 11 15 14 14 10 6 2 11 10 4 14 15 14 12 10 7 5 4 5
22 21 20 22 20 22 22 20 20 19 15 13 11 7 8 11 8 7 8 4 3 4 8 15 13 9 6 8 11 7 8 11 11 10 9 9 9 9
19 21 22 19 23 22 21 20 21 19 17 19 16 14 15 18 15 13 11 10 9 14 10 12 12 16 13 8 1 2 3 5 7 8 7 6 6 5
21 22 21 22 22 21 24 18 17 15 13 13 15 18 19 17 17 17 15 14 13 15 13 5 11 13 14 13 11 10 10 9 7 5 4 6 8 9
18 20 18 19 19 22 20 18 17 17 17 15 15 16 14 9 13 13 15 12 9 11 10 11 11 12 13 13 15 15 16 17 16 14 13 14 13 13
21 19 16 16 21 20 20 19 16 19 18 17 17 15 13 16 18 16 14 10 8 3 11 11 7 4 3 3 6 15 16 14 17 19 20 19 16 16
19 18 19 18 18 17 16 18 16 16 14 16 14 15 12 11 13 17 20 21 18 16 10 9 7 5 4 4 6 5 7 8 8 9 11 15 17 17
16 17 17 17 16 15 16 16 14 14 13 12 11 12 11 11 9 10 11 14 19 23 18 16 15 17 13 6 6 9 10 13 11 12 14 14 17 18
13 13 14 15 14 14 15 15 15 16 16 15 14 13 13 12 10 10 11 13 15 16 16 18 22 21 19 11 6 8 8 5 6 9 14 11 11 11
11 11 13 15 14 15 16 16 17 17 17 15 15 13 12 11 9 6 7 9 13 15 14 16 19 19 17 17 15 15 17 9 4 5 12 16 14 12
11 11 15 18 17 17 19 18 18 19 21 20 18 16 14 12 10 7 3 4 8 4 7 8 9 14 19 15 13 15 12 13 14 13 12 14 18 18
9 10 13 15 17 15 18 19 19 20 19 19 17 16 16 15 13 12 10 7 6 5 3 2 3 3 7 11 16 16 14 17 15 11 13 15 19 20
8 8 9 11 14 13 15 15 17 17 15 16 17 17 16 15 14 13 12 10 10 9 8 7 5 6 2 3 1 10 12 10 9 10 11 16 14 12
7 8 9 10 12 12 13 13 15 15 14 14 16 17 18 14 14 15 12 11 10 9 9 6 6 6 1 2 1 2 2 3 4 5 7 9 11 13
7 7 8 9 10 11 11 12 12 14 13 12 14 15 16 16 15 13 13 9 10 10 9 10 8 5 3 2 1 3 5 4 2 3 3 5 4 3
7 7 8 9 8 10 10 12 12 14 14 13 13 13 14 14 14 13 12 11 11 10 10 8 5 2 2 2 2 3 2 4 2 1 1 1 1 1
8 7 7 8 8 9 9 9 12 12 12 12 11 12 12 14 12 11 9 9 10 12 13 10 7 3 4 2 4 3 2 1 0 1 2 4 3 3

GFSNE_925_spd_015.txt.gz
Wind_Speed
12 12 12 13 12 10 11 11 15 14 15 31 31 27 29 31 29 25 22 19 16 12 11 9 8 9 12 17 14 9 6 9 11 19 18 20 20 16
13 13 14 12 11 12 13 15 17 21 15 28 31 31 29 29 27 27 23 19 13 11 10 10 11 10 11 13 20 19 12 7 6 11 18 22 20 16
13 12 13 12 14 16 17 19 20 21 20 33 29 29 29 27 26 25 22 19 14 12 11 11 13 11 10 12 15 19 22 17 14 9 16 20 19 18
11 11 13 14 18 19 20 21 21 22 23 29 28 26 24 24 24 24 21 16 14 15 14 11 10 11 11 11 13 21 17 15 20 19 15 19 18 18
9 11 15 17 20 22 22 24 22 22 21 23 28 27 25 22 22 19 18 17 13 13 14 12 8 10 12 12 10 16 21 16 17 20 20 20 22 23
10 14 16 18 20 22 23 21 22 20 22 23 25 24 23 22 18 19 19 16 13 11 12 12 7 7 10 11 9 14 15 16 17 14 20 19 21 21
15 16 16 17 19 20 20 21 22 22 21 21 22 21 20 18 15 11 15 17 14 12 11 10 9 8 7 8 9 11 13 16 19 24 20 17 13 13
15 17 18 16 15 17 18 18 19 21 22 22 22 19 21 19 18 13 10 10 9 4 6 7 7 9 8 7 7 9 11 17 18 23 21 14 14 19
15 16 16 15 16 16 17 20 20 18 20 22 22 20 18 17 18 18 14 13 16 14 11 13 9 10 9 9 5 3 3 20 16 15 19 20 21 18
13 14 15 16 15 17 21 20 18 18 18 18 19 19 19 19 18 17 18 17 18 18 14 15 13 12 9 8 10 6 5 13 15 17 19 18 17 16
13 14 14 15 16 19 20 19 19 20 15 16 19 19 19 18 18 18 18 15 14 16 15 14 16 14 10 8 10 13 10 9 14 13 13 15 15 15
14 14 13 14 17 19 19 18 19 19 21 19 17 15 14 15 16 17 18 17 13 9 10 10 9 7 4 3 5 11 18 17 17 15 14 12 13 10
14 14 13 15 18 18 16 14 17 20 18 16 16 15 13 13 12 11 13 18 19 17 7 7 5 6 4 1 2 3 7 12 13 14 18 18 18 16
13 13 14 17 17 15 13 14 15 14 14 14 14 13 12 12 11 11 11 12 17 21 16 14 13 10 8 7 6 1 3 6 10 13 12 13 18 20
11 13 14 15 15 12 12 13 12 12 13 14 14 14 14 14 13 12 11 11 12 13 15 17 17 16 14 12 11 9 6 5 7 10 10 9 11 13
12 12 11 12 12 11 11 11 11 11 10 12 14 15 14 13 11 8 7 7 10 10 13 15 16 16 14 13 11 10 9 6 8 10 8 9 11 14
13 9 9 10 12 12 11 11 12 12 11 12 14 15 14 14 14 13 9 3 7 3 6 10 17 18 16 13 12 12 11 11 11 7 7 8 11 13
9 9 9 9 10 12 12 12 11 13 12 12 12 13 14 14 14 14 13 11 9 7 6 4 4 8 9 11 14 7 10 9 9 9 9 9 12 14
8 9 8 8 9 10 11 11 12 12 12 10 11 12 13 12 12 13 12 12 10 8 7 7 7 4 4 4 5 12 8 7 8 8 9 11 9 8
9 9 8 8 9 9 9 10 11 11 11 10 10 10 11 11 11 11 11 11 10 8 7 5 5 6 7 4 2 2 6 6 6 5 5 6 7 8
11 9 8 8 8 8 8 8 9 9 10 10 9 10 10 10 10 10 10 10 10 9 8 7 7 6 4 1 2 2 2 5 5 4 3 5 5 4
13 11 9 9 8 8 8 8 7 8 8 8 8 8 9 9 9 9 9 9 10 10 10 8 7 4 3 4 1 1 1 3 4 4 5 3 1 2
15 13 11 11 11 10 8 7 7 7 7 7 8 7 8 8 8 7 8 7 8 10 10 8 6 4 3 3 2 1 1 3 4 4 2 3 2 1

GFSNE_925_spd_018.txt.gz
Wind_Speed
13 13 15 18 19 19 20 20 21 14 16 31 33 30 29 29 29 30 30 28 25 24 22 15 14 14 15 14 18 20 14 9 13 19 24 28 24 23
16 16 18 19 21 20 21 21 22 25 16 31 32 31 30 30 29 28 28 28 27 26 16 13 14 15 15 14 17 16 21 21 10 12 21 23 27 25
16 17 18 20 21 21 23 24 26 27 23 34 32 31 29 27 27 25 27 25 24 21 15 7 12 12 13 14 15 17 16 22 24 14 13 22 25 25
16 17 19 21 22 24 25 25 26 27 26 31 30 29 28 28 28 26 26 25 24 18 13 16 15 15 14 14 15 16 16 16 22 26 14 17 24 24
11 14 18 21 24 24 24 25 24 24 23 27 29 28 28 27 26 23 23 25 22 18 12 12 12 11 13 15 17 17 14 17 19 22 27 19 19 20
10 14 19 19 19 20 23 23 21 21 22 25 27 26 24 23 22 21 20 19 19 18 14 12 14 14 12 12 16 16 15 17 19 11 21 27 21 20
14 16 16 16 17 16 17 19 20 20 20 22 24 23 23 21 19 20 19 20 19 15 15 14 15 12 10 10 11 15 14 17 15 14 7 18 25 26
15 15 16 14 13 17 15 16 18 21 23 24 24 22 25 23 18 19 18 17 9 11 10 13 8 10 12 12 11 16 16 13 12 20 15 13 13 12
13 14 15 14 15 15 17 19 22 19 20 22 25 24 25 23 21 20 19 18 17 17 10 14 12 12 12 11 14 13 13 9 7 15 19 18 15 6
12 13 14 15 15 14 19 21 20 20 20 20 21 23 24 21 20 19 21 22 21 19 17 15 16 14 11 12 12 13 10 5 9 11 19 19 13 12
11 12 12 14 13 16 20 21 21 20 17 17 20 22 22 21 19 19 20 19 18 18 16 18 17 15 14 14 11 11 9 2 12 15 13 10 16 17
12 12 11 10 15 17 18 18 19 19 22 22 20 18 17 16 13 16 18 18 18 15 13 11 10 10 11 13 10 9 9 8 6 14 10 13 12 13
13 13 12 13 16 17 16 14 17 21 20 18 17 17 15 14 14 14 14 15 17 20 10 4 5 9 11 0 4 5 10 9 8 8 9 11 12 11
12 13 14 17 17 16 13 15 16 15 15 15 16 16 16 15 15 14 13 14 14 17 16 10 12 6 4 4 3 4 6 10 10 12 13 13 16 17
11 14 17 15 15 13 11 12 13 13 14 13 15 16 17 17 17 17 14 13 13 13 15 16 12 12 11 9 8 7 5 8 10 13 13 12 11 12
10 13 13 13 12 12 11 10 11 12 12 13 14 15 15 16 17 15 12 8 9 10 12 14 15 15 14 12 11 10 8 6 9 11 11 12 13 12
12 11 11 11 11 10 10 10 10 11 11 11 13 14 15 16 17 16 16 10 7 5 9 13 14 14 14 12 11 12 11 11 8 4 7 11 14 14
10 12 11 11 11 11 10 11 10 11 11 11 12 13 14 15 16 15 14 14 12 10 8 4 9 12 12 14 16 10 12 13 10 9 8 10 11 12
11 12 11 11 11 10 10 10 10 10 10 10 11 12 13 13 13 13 13 12 12 10 8 7 7 3 7 8 8 15 7 9 10 11 11 10 9 9
12 11 12 11 11 10 10 9 9 10 10 10 10 10 11 12 12 11 11 11 12 10 9 6 6 8 8 6 4 4 9 3 7 8 8 7 6 8
13 12 11 11 11 10 9 9 8 9 9 9 9 9 10 10 10 10 10 10 10 9 9 8 8 9 5 4 2 6 2 6 4 2 4 5 5 6
15 14 12 12 11 10 9 8 8 8 8 8 8 8 9 9 9 10 9 10 9 9 9 8 7 5 4 6 1 4 5 3 4 6 5 2 1 2
17 16 13 12 11 10 9 9 8 8 7 7 7 7 8 8 9 9 9 9 9 10 9 9 6 3 3 3 4 2 3 6 8 7 4 4 2 0

GFSNE_925_spd_021.txt.gz
Wind_Speed
17 14 14 16 17 18 20 22 20 12 14 27 27 29 27 28 28 28 29 30 30 30 34 29 27 26 24 20 21 22 21 26 22 19 13 11 23 29
19 14 15 17 16 19 22 22 23 22 15 27 29 29 29 30 29 28 29 29 32 32 33 28 27 22 19 18 19 19 20 21 29 28 20 14 15 27
16 14 15 16 18 21 23 24 25 25 21 28 30 30 30 29 29 29 30 30 30 31 32 26 22 18 12 13 16 17 17 19 20 24 26 20 16 19
12 14 16 18 21 24 24 25 25 27 27 26 30 29 29 28 29 29 28 27 26 30 24 19 19 21 18 17 19 19 19 17 18 21 21 25 21 15
14 13 16 19 23 23 22 23 25 26 25 23 26 26 27 26 27 26 25 24 25 25 22 21 16 18 11 13 18 20 21 20 13 17 18 26 22 18
10 13 17 20 18 16 21 20 21 22 22 22 23 25 25 25 25 25 23 22 23 23 21 18 13 16 15 16 15 16 19 20 17 16 16 21 25 21
14 17 18 15 16 14 14 19 19 20 21 22 22 23 25 24 23 25 23 21 22 22 17 18 16 20 14 13 14 12 16 21 21 16 11 18 20 21
17 17 16 15 11 16 15 12 16 21 24 24 24 23 25 24 24 23 22 20 12 19 13 14 15 9 11 11 10 12 18 21 20 15 14 3 9 16
15 14 15 14 14 15 15 18 20 23 24 25 26 24 24 23 24 23 22 20 21 20 17 16 17 11 12 15 8 12 17 20 19 13 16 14 11 12
12 13 13 13 12 12 17 19 21 21 21 20 21 25 25 27 26 25 25 25 22 23 21 18 19 17 15 14 13 14 17 16 15 8 13 15 14 7
12 12 11 13 12 16 16 19 21 21 19 20 21 23 25 26 25 22 20 19 16 21 18 18 22 17 17 16 16 17 13 12 8 3 14 15 9 9
11 11 10 7 12 13 16 18 20 20 23 23 21 20 19 18 17 18 18 17 17 17 15 11 13 13 12 19 19 16 10 9 4 7 11 12 12 9
11 11 10 13 15 16 15 15 16 21 20 19 19 18 18 17 16 14 15 16 16 17 17 10 11 9 14 6 6 9 9 8 5 3 11 16 16 7
11 12 12 16 17 15 14 14 21 16 17 17 16 16 16 17 18 18 18 17 16 17 15 13 12 12 8 7 4 3 4 7 5 3 4 11 18 11
10 12 15 15 14 13 9 16 13 13 15 15 15 16 16 18 20 21 21 15 16 16 15 16 14 12 9 10 8 8 4 4 5 6 6 7 6 9
11 9 15 14 12 14 13 10 11 12 13 15 15 16 17 17 18 20 22 24 10 12 13 14 15 13 11 10 10 11 8 5 6 7 7 8 9 10
10 11 12 11 11 12 11 11 11 11 13 13 14 15 16 16 17 20 19 21 14 7 9 11 11 12 11 12 12 12 9 8 3 4 6 7 8 9
9 12 12 9 10 11 12 11 11 10 11 12 13 13 15 16 17 17 17 17 17 17 13 7 12 11 12 15 17 11 10 10 10 6 4 4 7 8
11 12 13 10 10 11 11 11 11 10 10 11 11 12 13 14 15 14 14 14 15 14 14 13 12 3 4 7 4 16 8 6 12 10 9 9 7 3
15 15 13 11 10 11 11 10 10 10 10 10 10 11 11 13 15 13 12 13 13 14 12 11 10 11 10 6 3 2 8 4 8 10 13 11 9 8
16 16 15 12 11 11 10 8 9 9 9 9 9 9 10 10 12 13 13 12 13 10 11 12 12 12 7 8 3 5 3 3 2 3 6 5 6 6
19 18 16 14 12 10 10 9 10 9 8 8 8 8 8 9 10 11 12 13 12 12 13 12 11 9 7 7 6 6 5 3 1 2 2 2 1 1
20 20 18 17 14 12 12 11 10 10 8 7 7 7 7 9 9 9 9 11 11 11 12 12 11 8 6 5 6 7 6 5 5 6 3 2 1 3

GFSNE_925_spd_024.txt.gz
Wind_Speed
15 14 15 11 16 11 13 17 16 7 9 22 23 22 22 22 23 26 27 27 29 31 33 33 33 32 30 27 25 24 23 21 20 21 22 22 22 19
16 16 17 10 12 10 12 17 20 21 10 22 23 22 17 24 23 26 29 31 32 32 33 34 34 34 29 23 23 22 20 19 19 20 20 26 23 24
17 10 11 15 10 12 14 18 19 20 16 23 25 23 26 26 27 28 29 30 31 28 28 32 32 30 27 24 23 20 18 19 18 20 20 20 25 26
11 8 8 11 13 14 17 16 18 21 23 22 24 24 24 25 26 27 26 26 29 28 29 29 27 23 24 21 25 26 21 20 19 20 19 18 22 29
10 9 10 12 15 13 13 17 20 20 21 22 24 24 23 23 26 26 26 26 25 25 26 24 25 26 27 21 21 19 19 18 19 20 19 18 21 21
8 8 12 13 11 13 13 15 15 18 20 20 21 22 22 24 24 23 23 24 25 26 25 24 25 24 16 22 22 24 20 14 16 19 19 19 22 20
9 12 14 14 15 15 13 14 13 16 18 20 20 22 21 19 19 21 20 23 27 25 23 22 22 24 20 23 25 24 17 14 17 19 14 15 21 22
12 12 13 13 8 11 10 8 13 17 21 21 22 21 22 21 20 20 21 20 13 21 24 25 22 22 23 14 11 9 10 15 20 19 9 10 15 16
12 12 13 12 13 12 13 16 19 19 22 24 23 21 19 18 21 22 22 21 22 26 25 24 23 24 23 18 15 12 16 20 22 20 14 8 2 1
10 11 12 9 13 13 16 21 17 19 20 21 18 21 22 25 27 24 25 25 26 24 21 18 22 25 26 23 17 15 17 20 22 21 13 10 3 10
10 11 12 10 12 14 19 17 18 19 18 21 25 22 22 23 24 25 23 18 18 20 21 20 20 25 23 22 22 19 18 17 18 17 7 12 12 12
10 10 14 7 10 13 14 15 17 18 23 26 22 22 22 22 20 18 18 17 16 14 11 9 15 17 7 10 11 15 19 14 12 8 4 8 10 15
8 10 8 9 14 19 13 13 14 19 19 20 20 21 20 18 21 21 20 19 18 18 22 14 12 17 11 13 15 10 12 11 6 4 4 10 14 10
11 11 12 14 17 13 11 12 14 15 17 16 20 18 19 21 23 25 25 26 27 25 24 18 13 13 13 8 8 12 6 6 4 2 3 6 12 14
10 11 13 14 15 15 12 15 15 13 12 16 18 17 19 22 23 23 26 26 29 17 19 17 18 14 13 14 12 13 11 8 3 3 2 5 13 12
12 11 10 16 14 13 13 11 9 11 12 14 15 19 19 20 21 21 24 24 23 25 13 16 16 13 13 13 10 12 12 8 7 1 2 5 8 7
11 12 13 14 11 10 12 12 10 10 11 11 15 18 18 18 19 21 20 20 17 21 22 9 9 12 11 10 11 12 13 10 4 3 3 4 4 4
14 11 13 16 12 10 12 13 10 9 7 15 13 15 16 18 19 21 17 17 16 18 19 20 8 7 9 13 15 15 12 11 7 4 2 5 4 2
15 13 16 17 13 11 12 13 9 6 9 10 11 14 14 16 19 19 17 16 16 17 18 18 16 13 4 0 7 15 9 7 6 7 7 5 3 2
19 18 19 18 16 14 11 10 7 9 11 10 11 13 12 14 16 17 18 18 17 17 14 14 13 15 8 5 5 1 11 7 7 9 8 7 5 4
20 22 23 22 20 17 14 11 9 10 11 13 10 10 11 11 14 12 16 18 19 14 13 15 17 13 12 11 5 4 2 2 4 4 6 11 9 6
23 23 23 19 16 14 13 11 11 11 12 10 9 9 9 9 12 12 11 14 17 17 16 17 17 16 11 8 6 5 6 4 3 3 5 4 3 2
25 25 24 24 23 21 19 16 15 14 13 11 10 10 8 9 11 10 11 9 12 15 17 19 17 15 14 7 9 7 4 5 5 6 6 5 4 6

GFSNE_925_spd_027.txt.gz
Wind_Speed
11 12 14 15 14 12 12 14 5 2 6 17 20 16 15 11 20 22 24 32 31 31 32 28 27 27 28 28 29 27 25 25 25 25 23 24 24 25
12 12 12 9 6 8 7 10 11 12 3 10 18 20 19 24 25 26 30 26 28 28 28 28 28 30 27 28 30 27 24 22 21 22 22 21 22 23
8 6 4 5 3 4 6 7 6 11 7 14 20 20 25 24 26 24 25 27 25 26 26 28 28 28 27 25 25 21 22 23 22 24 24 22 20 22
5 3 2 1 3 5 8 7 11 16 14 14 22 24 23 23 25 26 27 24 27 24 24 27 24 24 25 28 26 27 26 27 25 25 24 24 23 21
5 5 5 8 9 7 8 13 15 16 17 18 21 23 24 26 26 26 24 24 23 24 26 25 24 26 21 24 27 21 23 22 22 22 22 24 25 25
4 4 8 7 7 11 12 11 11 13 16 19 20 20 21 26 24 21 20 21 25 28 26 23 19 23 23 26 23 21 20 22 23 20 21 23 24 25
6 6 6 9 10 9 7 10 10 15 17 19 18 19 21 20 18 17 20 23 28 24 24 24 25 26 27 24 21 18 20 17 14 17 20 22 22 24
7 7 7 8 6 3 5 4 8 14 17 18 18 18 20 19 17 21 23 21 13 18 18 30 25 28 27 21 25 19 10 6 11 15 19 20 19 20
6 8 9 9 10 9 13 16 18 20 14 18 22 16 20 21 21 23 22 19 21 30 23 24 25 25 26 24 23 23 17 14 16 19 21 20 16 14
7 8 8 10 10 13 16 17 19 17 15 15 19 25 22 21 23 23 27 27 28 32 22 14 24 25 27 29 21 17 17 20 20 18 20 17 14 13
9 8 8 8 11 9 14 18 20 18 13 15 16 17 18 19 18 20 18 16 15 23 25 16 16 20 22 21 14 13 16 19 17 19 19 13 17 6
8 8 9 9 8 12 16 17 16 15 16 18 19 20 20 17 17 17 19 18 19 15 13 8 18 14 8 9 23 21 23 16 15 15 12 7 14 11
11 11 9 9 11 13 15 12 13 14 17 17 18 21 21 21 21 21 22 22 22 23 26 17 11 14 8 14 15 23 14 7 11 10 9 5 5 18
12 11 10 11 14 15 12 12 15 14 16 16 17 18 20 23 23 23 22 23 23 25 30 16 11 12 12 11 9 16 27 7 7 4 7 0 6 12
15 11 10 11 13 14 14 15 16 15 14 15 16 16 17 21 21 23 22 22 25 21 28 12 14 16 13 13 11 12 15 17 14 6 9 5 6 17
18 15 14 13 14 14 14 12 12 11 11 10 12 15 17 18 22 21 24 24 23 25 27 16 11 13 12 12 12 13 13 9 15 17 4 1 9 12
18 17 16 16 15 14 15 13 12 12 11 10 13 12 16 17 21 21 20 21 17 18 21 26 19 7 9 11 11 12 12 12 5 12 8 7 5 7
17 20 21 18 16 17 17 14 12 12 8 8 9 11 14 16 18 19 18 18 16 17 18 19 21 11 10 7 13 16 10 6 5 3 6 7 14 9
19 21 22 20 20 19 18 15 14 9 8 9 10 12 12 13 16 18 18 17 17 17 16 14 18 14 3 2 6 4 7 7 9 1 2 5 8 10
22 24 24 23 23 22 21 18 14 11 10 10 10 10 10 11 13 15 16 16 17 15 14 14 16 16 8 4 5 6 3 6 8 5 6 4 6 8
28 28 27 27 26 24 22 21 19 16 12 10 11 10 9 9 11 12 14 14 15 13 13 15 19 14 13 8 5 2 4 3 7 4 5 7 7 5
29 29 28 28 26 24 22 22 20 18 14 12 11 10 9 9 11 10 12 12 13 13 15 16 16 17 10 6 3 4 4 5 6 8 8 5 4 4
31 30 28 29 30 29 25 22 24 22 17 14 13 13 10 9 9 9 10 8 9 12 15 16 17 16 14 14 9 6 4 4 5 7 9 9 9 10

GFSNE_925_spd_030.txt.gz
Wind_Speed
11 11 14 16 14 13 15 10 5 2 3 4 3 10 18 19 23 25 28 32 26 23 23 20 21 22 23 24 25 25 27 29 30 27 24 25 25 27
10 11 11 10 13 13 7 5 7 3 3 5 12 21 22 25 25 23 24 23 24 21 20 22 22 22 23 23 22 23 25 28 29 26 25 23 24 26
8 9 6 6 8 5 6 6 5 5 6 11 21 22 24 25 25 24 24 23 21 20 21 20 23 25 22 21 22 24 26 25 23 23 24 26 25 25
8 6 5 6 5 7 7 8 7 9 8 12 18 23 26 22 23 25 22 21 22 22 21 22 24 23 21 20 20 22 26 27 26 26 24 25 24 25
9 7 6 6 8 9 8 10 9 8 10 11 17 24 24 23 26 25 22 25 25 23 25 25 25 20 18 20 21 22 25 22 20 23 22 22 23 25
6 6 6 7 6 8 10 8 8 10 13 17 20 19 18 24 23 21 21 22 29 30 28 23 21 21 23 21 21 22 22 18 19 19 22 21 24 27
6 5 5 7 8 7 8 8 7 11 14 18 16 16 17 17 16 20 21 24 30 26 21 19 27 23 21 21 22 21 23 15 14 15 15 18 22 26
8 8 8 10 10 9 8 7 8 11 15 15 15 14 14 20 22 21 23 20 10 19 9 32 27 24 21 21 21 21 22 20 11 10 16 20 24 27
9 9 9 11 10 10 10 10 11 15 15 14 17 15 19 23 22 23 20 19 21 31 22 22 25 25 21 21 21 24 19 20 19 18 20 23 26 28
10 10 12 12 12 11 11 13 15 18 15 12 13 20 19 22 22 23 23 23 22 25 18 12 25 24 19 23 16 14 12 15 18 20 22 23 28 26
11 12 13 13 11 12 11 14 18 17 10 10 12 16 18 16 15 18 17 16 18 23 23 15 19 16 20 15 13 17 20 16 16 17 20 23 24 20
13 12 13 14 12 10 12 15 15 12 12 14 16 17 17 18 16 14 16 16 17 14 16 9 17 13 6 7 20 20 21 21 12 15 16 19 17 14
16 15 14 15 14 12 11 13 12 12 15 17 20 20 19 20 18 17 17 17 18 19 28 23 12 8 6 10 14 15 24 25 11 11 15 16 12 15
20 17 15 14 15 13 13 13 13 14 18 20 21 21 18 19 19 20 18 16 16 21 22 27 15 10 8 8 8 17 20 22 21 13 13 14 12 11
23 20 17 15 15 15 14 13 15 16 18 19 18 17 16 17 19 20 18 16 17 16 15 19 13 15 15 13 11 18 21 21 14 22 8 12 6 11
25 23 21 19 18 17 16 15 15 14 16 17 16 14 15 16 18 18 19 20 20 21 17 20 18 8 10 10 11 12 15 10 20 18 17 12 0 7
23 25 22 22 22 21 19 16 16 16 15 17 14 13 13 13 16 17 17 18 16 18 20 21 21 13 11 11 12 13 14 16 12 12 18 14 9 12
22 23 24 26 27 25 22 19 17 17 15 14 12 12 11 11 13 16 16 17 16 17 16 19 22 22 13 5 6 9 10 9 12 9 13 12 14 15
22 20 20 25 27 27 24 21 19 18 15 14 11 10 9 9 11 13 15 16 17 16 16 17 17 15 6 3 5 10 6 4 7 6 9 11 11 14
27 28 30 29 27 26 25 22 20 18 17 15 12 8 9 9 11 11 12 15 15 14 15 17 16 13 7 4 6 6 7 6 6 3 3 7 8 9
27 30 32 31 28 26 25 23 20 20 21 19 15 12 9 9 10 10 10 12 13 11 13 17 18 13 12 9 4 1 5 9 7 2 1 4 4 2
27 29 31 30 29 26 25 23 22 22 23 23 19 14 11 9 10 9 8 10 10 11 15 15 15 15 13 7 1 4 4 7 10 10 10 5 1 2
26 30 31 31 29 26 25 24 23 23 24 24 21 17 13 12 9 8 7 7 7 10 14 15 14 13 12 11 7 4 5 5 6 9 12 12 11 10

GFSNE_925_spd_033.txt.gz
Wind_Speed
8 12 12 14 15 14 11 11 5 2 2 4 4 9 19 23 24 22 22 24 21 21 21 20 20 21 23 24 25 26 27 27 28 29 31 31 28 26
11 12 12 13 11 12 11 10 10 8 2 6 12 17 21 21 23 19 19 19 19 16 16 18 20 20 22 24 24 23 24 25 27 28 29 31 27 25
11 11 11 9 9 10 9 9 11 10 11 15 17 20 22 24 22 21 21 20 17 18 20 20 21 23 23 24 24 23 23 22 25 29 30 28 25 25
10 8 9 10 11 10 10 10 13 11 11 14 21 23 25 26 22 22 22 20 20 21 21 24 27 27 26 25 20 21 21 23 25 28 29 28 27 25
13 11 9 10 11 12 13 12 12 11 12 14 19 23 27 24 23 22 22 23 25 23 26 23 20 20 21 23 23 23 23 23 27 26 26 26 27 25
14 13 12 13 13 11 12 13 12 12 13 15 21 21 20 22 19 17 23 22 27 28 22 19 20 25 24 24 23 23 22 22 23 24 24 23 23 24
13 12 12 12 12 12 13 12 12 12 13 16 19 17 16 17 15 20 21 25 26 18 19 26 28 28 25 21 19 21 22 21 23 24 21 17 19 20
14 13 13 12 12 12 12 11 10 11 14 16 18 14 16 17 21 20 21 16 8 14 19 30 27 29 26 22 19 20 23 25 24 22 21 19 20 22
17 15 14 13 13 12 12 12 12 12 14 17 18 16 16 18 21 21 20 20 19 24 22 25 27 30 29 23 22 17 21 21 22 21 22 22 23 24
18 16 14 14 14 14 15 15 14 15 17 13 12 13 15 18 19 20 22 21 22 22 16 15 26 29 30 26 21 12 16 17 19 22 23 23 24 27
19 17 16 15 15 14 15 15 15 17 12 9 10 12 13 15 17 19 20 16 18 21 22 15 19 27 26 23 10 14 17 18 25 22 23 23 24 27
21 20 18 17 14 14 16 15 16 16 11 11 12 14 15 17 18 15 17 15 15 13 7 16 22 15 7 11 11 17 16 24 23 16 13 18 20 22
26 24 21 18 16 16 16 16 17 14 13 14 16 19 19 18 18 16 17 18 16 16 27 19 15 23 9 12 13 18 13 24 24 22 15 17 18 20
30 28 25 21 19 17 17 17 16 16 16 18 20 20 18 17 17 18 19 17 16 21 23 18 18 20 14 13 11 13 21 19 19 23 24 13 19 17
34 32 29 22 21 19 18 17 17 18 18 19 20 18 17 16 17 17 17 15 17 16 16 12 17 21 18 15 14 17 17 16 12 21 26 23 16 10
30 31 32 27 22 21 21 21 20 19 19 18 19 18 16 16 16 14 17 19 18 19 15 13 16 19 16 17 15 20 18 11 21 18 25 18 7 3
25 25 25 25 25 25 26 25 22 20 21 19 18 18 15 16 15 12 15 16 17 18 20 21 21 20 11 9 15 16 17 15 14 17 20 17 21 13
22 23 24 26 25 26 27 28 25 22 21 19 18 17 14 13 13 12 13 13 16 18 19 21 22 23 16 3 8 13 10 10 13 12 15 13 18 23
23 24 25 23 27 28 28 27 26 23 20 18 18 16 13 12 11 12 12 13 15 18 18 19 17 11 5 4 7 9 12 11 11 7 10 13 13 18
24 21 23 25 25 28 26 25 25 23 21 19 18 18 14 13 12 12 11 11 14 16 16 18 17 12 6 4 6 11 9 12 7 5 6 7 9 10
19 24 29 27 29 31 29 26 25 23 21 20 20 20 17 15 13 11 11 9 11 13 14 18 20 15 13 9 5 2 5 11 11 6 5 6 5 6
17 23 27 29 29 29 29 26 24 22 22 22 23 23 19 16 14 11 10 8 8 11 14 17 16 15 11 6 2 2 1 9 13 14 12 10 4 2
20 25 25 27 28 28 28 25 22 23 22 23 23 24 22 18 15 11 9 8 7 9 11 16 14 12 13 10 5 4 3 3 4 11 17 16 14 12

GFSNE_925_spd_036.txt.gz
Wind_Speed
8 11 13 13 14 15 15 13 7 4 5 7 8 8 12 19 24 24 24 23 22 21 22 22 22 22 23 24 25 26 28 28 28 28 27 28 29 30
12 13 13 13 13 13 11 12 13 10 4 5 8 15 15 20 20 22 22 22 22 21 19 20 22 23 24 25 26 27 28 28 28 27 28 28 30 31
13 14 13 12 11 12 12 11 12 13 10 12 15 15 19 21 23 22 21 22 21 20 20 22 22 25 27 28 28 28 27 28 27 26 27 27 30 31
14 15 13 11 13 13 14 13 14 16 15 15 19 17 21 24 24 22 22 19 23 23 23 24 25 24 22 22 23 25 26 25 25 25 26 27 28 31
16 16 15 14 14 14 15 16 17 16 15 16 17 18 22 24 24 23 21 25 25 21 22 20 17 19 22 24 24 25 27 28 27 27 26 27 27 28
17 17 17 17 17 16 16 16 16 16 15 15 17 21 20 22 21 17 22 21 25 24 17 16 23 24 23 23 22 22 23 24 25 26 27 27 30 27
18 18 18 19 17 16 16 16 16 16 15 14 17 16 17 16 14 19 20 25 23 12 20 25 28 27 26 24 22 19 18 19 23 26 26 28 30 27
20 19 19 18 17 16 15 15 15 16 15 14 15 14 17 17 18 19 20 17 12 13 25 31 23 29 27 26 22 20 20 19 22 27 28 27 26 26
22 22 21 20 17 16 15 16 16 15 15 15 18 20 17 16 17 19 16 19 21 22 23 27 25 29 29 31 26 20 17 16 19 19 21 25 27 27
25 23 23 21 19 18 16 18 19 17 16 16 19 15 14 14 16 18 21 24 21 20 18 18 22 26 30 32 22 15 9 14 19 22 26 26 28 29
25 24 24 23 21 18 18 20 20 19 16 16 13 12 13 14 15 17 20 15 18 19 22 13 14 28 24 21 14 12 13 20 20 24 24 25 24 27
26 26 25 26 23 20 20 20 21 21 16 14 13 14 14 15 15 15 16 14 15 12 5 14 21 13 11 13 15 23 16 20 23 22 21 20 19 20
28 27 27 29 27 24 22 22 23 17 15 15 16 16 17 17 16 15 15 16 16 16 23 18 18 18 10 16 20 22 20 21 25 22 26 22 20 19
27 29 30 28 28 29 25 24 20 18 17 17 19 21 20 18 15 15 16 17 17 20 22 17 15 18 20 22 17 18 23 25 19 23 29 27 23 20
26 27 28 29 29 28 29 25 22 21 20 20 22 22 19 17 15 16 16 16 18 17 14 13 14 17 18 18 20 19 18 17 16 24 28 30 24 15
24 27 29 27 26 27 29 27 26 25 23 22 22 20 18 17 16 15 15 16 18 19 17 14 14 16 19 19 15 17 16 9 22 24 26 24 21 7
22 21 23 24 22 23 27 28 29 26 25 24 21 20 19 17 15 13 12 13 13 17 20 21 19 19 15 13 9 12 15 15 16 21 23 20 25 20
20 19 20 20 21 22 24 26 29 28 27 26 22 20 19 16 14 12 10 11 13 15 17 20 21 20 13 4 4 9 12 13 18 17 17 13 21 27
21 18 20 20 23 24 25 26 25 25 24 24 22 21 19 16 14 13 12 11 13 15 16 18 14 10 5 5 8 6 13 14 15 12 12 11 10 21
17 20 20 20 22 23 26 26 26 24 22 21 21 20 19 17 15 14 12 11 12 13 14 16 13 10 7 4 5 14 8 14 10 10 11 8 9 12
19 20 22 21 20 23 27 27 25 26 24 22 22 21 20 19 18 15 13 10 10 10 11 15 19 15 15 9 5 5 5 8 12 11 9 6 6 11
18 19 19 18 21 24 26 27 25 25 25 22 22 22 22 21 20 15 13 10 9 9 11 16 15 13 9 5 5 1 1 7 12 15 19 17 7 3
23 16 9 12 17 22 25 25 25 24 24 23 24 24 23 23 21 16 14 11 9 8 9 13 13 11 9 7 6 4 2 4 5 11 17 16 15 14

GFSNE_925_spd_039.txt.gz
Wind_Speed
6 6 8 7 9 10 11 11 13 8 9 11 12 9 9 11 14 20 21 23 28 26 26 25 23 23 23 24 26 27 28 30 31 30 31 29 27 26
8 9 12 12 10 10 11 11 11 12 7 13 13 12 11 13 17 18 21 25 23 25 23 22 23 25 25 25 26 28 30 30 31 30 30 29 28 27
12 14 13 12 11 10 10 12 13 12 15 18 13 13 12 16 18 19 20 20 21 21 22 24 25 26 26 27 27 27 28 30 31 31 30 28 27 27
16 14 14 12 12 11 11 13 14 14 16 19 18 15 14 15 17 18 18 19 19 21 22 24 24 24 22 23 24 26 27 28 28 28 30 27 27 29
18 16 16 13 14 13 13 13 14 14 14 16 20 16 16 15 17 18 18 19 19 20 23 22 18 18 21 23 25 26 27 28 27 28 29 28 27 28
22 19 17 16 16 15 14 14 14 14 14 16 18 17 16 15 15 17 18 18 21 21 19 15 19 22 22 22 22 23 23 23 23 23 23 26 29 28
22 21 20 20 19 18 15 15 14 14 15 16 17 16 16 15 16 16 18 19 20 18 17 16 22 21 19 19 20 20 21 20 20 21 22 25 28 31
19 20 22 21 21 21 20 19 17 15 16 16 16 16 17 16 14 14 17 17 17 17 21 24 21 22 20 19 22 25 24 23 21 20 21 20 21 27
19 19 19 23 22 19 19 20 19 20 20 17 17 17 17 14 13 15 16 18 22 23 23 23 21 21 18 21 25 24 22 21 18 19 20 22 27 28
20 21 21 20 19 21 19 16 17 17 18 18 18 18 16 13 12 15 18 21 22 20 19 21 19 20 22 23 21 14 16 13 15 20 23 24 26 28
21 21 21 22 23 24 21 19 19 20 19 22 21 19 17 14 14 15 18 19 20 20 18 11 16 24 22 21 13 16 22 19 20 24 24 26 24 24
18 21 25 26 26 25 25 24 22 22 17 15 15 15 15 15 16 15 16 17 18 15 6 14 20 17 10 13 18 20 19 20 22 23 26 24 25 24
18 19 20 27 26 29 27 28 29 23 18 16 14 14 14 14 14 13 14 15 17 19 19 18 19 20 15 22 24 24 17 22 22 23 23 23 27 27
25 23 23 25 25 26 28 32 35 31 18 16 15 15 15 15 14 14 14 15 17 20 20 18 20 19 20 22 23 23 26 23 21 20 20 29 35 32
31 31 28 27 27 24 25 28 33 28 21 20 19 17 16 14 13 12 13 15 16 17 15 14 16 18 18 21 24 24 24 21 19 17 24 32 32 25
28 29 27 25 20 23 26 24 26 28 26 22 19 16 14 12 12 11 12 13 14 14 12 12 13 15 19 20 20 20 18 14 21 20 24 29 26 21
34 27 21 19 16 17 18 19 22 24 25 22 19 17 15 13 12 11 10 11 12 14 14 13 13 15 18 19 17 14 16 18 17 19 21 24 24 26
27 24 22 18 17 17 17 18 18 21 23 22 21 20 17 15 13 11 9 10 12 13 14 14 14 14 11 6 8 10 13 15 17 17 16 16 16 28
24 23 20 17 17 17 17 16 18 19 21 21 19 19 18 15 13 12 10 10 11 11 12 11 11 10 7 6 6 7 11 15 16 13 13 13 12 16
16 15 17 16 17 18 19 17 17 15 16 17 17 17 17 16 14 13 11 10 10 10 11 9 8 8 10 7 7 9 8 10 13 13 11 10 8 13
26 26 21 18 17 15 17 17 17 16 16 15 17 16 17 17 16 14 11 10 9 9 10 9 9 12 12 8 5 7 3 5 9 12 14 6 6 11
22 23 26 28 15 14 14 12 13 14 15 15 16 17 17 18 17 14 12 10 8 8 9 9 9 8 7 6 7 3 2 2 6 12 14 15 6 5
22 22 21 21 21 19 13 12 13 13 14 14 15 18 17 18 17 15 12 11 9 8 7 7 7 5 5 5 4 3 1 1 2 4 9 12 12 11

GFSNE_925_spd_042.txt.gz
Wind_Speed
9 9 11 10 10 10 10 12 13 10 10 14 15 12 13 17 17 19 22 23 24 29 24 23 24 24 25 25 26 27 27 28 29 29 30 30 30 30
9 10 10 11 12 11 13 14 14 16 11 16 17 15 14 18 19 19 23 23 25 24 23 23 24 25 26 27 27 27 28 29 28 29 30 31 30 30
12 12 12 12 13 14 14 15 16 16 16 21 18 17 15 18 20 21 22 24 24 23 21 24 26 25 26 26 27 27 26 25 26 26 27 27 29 30
15 16 16 15 15 16 17 17 18 18 19 21 20 20 20 17 20 21 21 22 23 23 23 26 26 26 25 23 22 24 25 26 27 27 27 28 29 30
18 19 20 20 19 18 18 19 18 19 19 19 21 20 20 18 20 20 20 21 21 21 23 24 21 22 22 24 25 26 27 26 26 26 27 27 27 28
20 22 23 23 22 20 21 20 19 20 20 20 20 20 19 18 18 20 20 19 21 21 22 21 22 23 25 23 24 24 24 24 24 25 25 25 25 24
21 22 23 25 25 24 23 21 19 20 19 19 20 19 19 17 17 18 19 19 20 19 20 20 22 24 22 21 21 21 18 22 27 26 25 25 26 26
23 22 22 24 26 29 28 26 24 21 21 20 20 20 20 18 17 18 17 18 17 16 20 24 22 23 22 21 19 23 26 25 26 25 24 24 24 24
22 23 23 23 22 24 24 25 27 27 27 24 22 22 20 18 17 18 17 18 20 21 21 24 22 23 21 20 19 24 22 19 21 21 20 22 25 29
23 23 24 25 25 24 24 25 23 24 23 23 24 23 20 18 16 17 17 20 21 20 18 22 22 21 21 23 22 21 18 24 25 21 24 27 28 31
22 23 23 24 25 25 25 27 26 26 26 26 27 23 23 23 22 17 17 17 18 19 17 19 17 22 23 24 17 10 21 21 26 25 27 27 29 31
24 24 23 24 26 26 26 26 28 28 26 25 20 23 25 22 20 18 18 19 18 18 16 17 20 21 17 21 14 23 22 25 23 28 27 28 27 26
27 27 26 24 26 27 27 28 30 27 24 25 21 22 19 18 19 19 19 19 18 20 18 16 20 21 21 24 24 23 24 23 26 27 23 20 21 26
28 29 30 29 29 30 26 26 29 30 25 23 20 23 21 19 19 18 18 18 18 21 21 19 20 21 21 23 24 24 24 23 25 25 20 24 27 34
28 30 33 32 35 34 31 28 25 23 26 22 24 24 21 20 17 15 15 16 18 19 19 17 18 20 21 22 24 24 23 24 22 22 23 27 29 34
30 29 30 33 31 31 26 23 24 25 23 25 25 23 18 15 16 15 15 15 15 16 15 15 16 17 20 21 22 23 22 18 23 21 24 26 28 27
34 30 29 27 25 23 21 19 19 20 21 22 22 21 18 17 17 15 15 14 15 15 14 13 14 15 19 20 21 19 19 19 19 21 22 23 23 29
23 22 24 25 25 25 19 13 14 15 17 18 20 19 18 19 17 15 14 15 14 14 13 13 12 14 15 15 15 13 13 15 18 19 18 18 15 27
20 23 23 21 21 20 15 12 13 14 16 16 17 20 19 18 17 16 15 14 14 13 13 11 11 11 7 7 8 6 11 14 16 16 15 13 11 17
21 22 23 24 23 28 19 14 14 14 14 15 16 17 20 19 16 15 17 15 13 12 11 11 10 9 9 7 11 13 12 9 12 15 15 13 4 12
21 21 22 23 24 25 31 15 16 13 13 15 15 17 19 19 17 16 16 13 11 11 11 10 8 9 10 10 8 12 6 4 7 11 15 11 10 10
20 21 22 22 23 22 23 24 20 11 11 13 15 16 19 19 17 17 16 13 12 12 11 9 8 8 8 8 11 7 3 2 4 6 11 12 7 6
20 21 22 22 22 21 20 20 19 21 12 9 10 12 16 18 17 16 16 15 12 11 9 8 7 7 7 6 7 7 2 3 2 2 5 8 9 10

GFSNE_925_spd_045.txt.gz
Wind_Speed
7 7 11 14 15 15 15 15 13 9 10 17 16 14 15 15 16 17 18 21 23 28 33 28 24 24 24 25 26 27 27 28 28 28 29 30 31 31
3 8 14 17 15 16 16 16 16 17 10 18 18 18 18 19 17 12 18 23 26 26 25 25 21 22 25 27 28 27 27 27 28 27 27 27 28 29
6 13 16 18 19 17 16 17 18 18 17 20 19 19 19 18 20 21 19 22 25 25 23 24 26 28 28 26 27 27 24 23 23 24 24 26 27 28
12 14 20 20 20 19 17 19 20 19 20 21 22 21 21 20 21 20 21 24 24 26 26 26 30 26 25 25 24 24 24 25 25 25 25 26 26 27
15 17 20 22 22 21 22 22 21 22 21 21 22 22 22 21 22 21 22 21 25 25 24 23 24 21 26 28 26 25 23 24 24 24 24 25 26 25
17 20 22 23 24 26 26 25 23 24 23 22 22 22 22 21 19 21 22 22 21 24 23 24 24 24 23 25 26 25 24 23 22 23 25 28 29 25
21 22 23 24 25 27 28 26 24 24 22 22 20 22 20 20 19 20 20 22 23 22 24 22 21 22 22 22 23 23 18 17 21 24 26 27 27 27
24 22 23 24 26 29 32 34 37 29 28 25 22 21 22 21 20 19 19 20 18 21 21 23 22 23 22 21 21 20 21 22 25 21 25 26 25 26
21 22 24 25 26 26 27 30 30 33 38 32 28 28 25 23 21 21 20 21 22 22 21 23 21 22 22 21 20 22 25 23 22 24 25 25 25 23
21 24 25 26 26 27 27 28 29 28 29 30 30 32 30 27 22 20 18 20 22 23 21 20 21 21 20 21 24 26 24 20 21 25 27 26 28 28
23 24 26 28 28 29 28 27 31 33 30 31 32 30 27 28 21 15 16 18 18 22 19 19 21 19 20 22 21 18 17 23 22 26 28 30 30 29
23 26 28 29 31 32 30 26 27 31 30 29 23 24 28 30 31 26 22 20 19 18 18 16 19 20 18 21 13 25 23 25 27 28 26 29 25 23
24 26 28 31 32 32 27 28 28 30 30 29 25 19 21 23 22 24 21 24 21 21 19 12 18 20 19 22 22 22 25 24 25 25 24 23 22 24
24 27 29 32 36 39 38 37 34 32 26 26 23 21 20 21 23 23 22 27 25 24 19 17 17 19 19 20 20 21 24 22 21 24 23 27 25 25
24 29 36 38 37 34 32 31 33 31 26 26 23 23 25 25 25 21 23 22 19 18 18 18 17 19 19 20 21 22 22 23 22 19 23 25 26 28
26 32 37 36 33 33 33 30 26 25 23 22 20 24 23 20 20 19 19 16 17 18 17 16 16 17 18 19 20 22 21 18 23 19 23 26 25 21
29 29 26 23 24 26 26 25 24 22 24 21 20 21 18 18 21 19 17 17 16 15 15 15 13 15 17 19 21 21 19 17 18 20 22 22 16 22
23 20 22 23 23 26 25 30 24 21 16 15 17 18 18 16 16 17 17 16 16 15 16 14 12 13 14 16 16 16 13 12 15 19 20 16 9 14
17 19 20 21 23 24 27 25 30 12 14 16 16 15 15 16 17 16 17 16 15 14 15 13 11 12 8 7 13 7 8 11 14 16 17 17 12 8
17 19 20 22 23 24 25 26 28 38 12 14 14 16 16 17 17 16 18 16 16 14 15 13 11 14 11 6 10 18 14 9 9 12 16 20 10 7
18 19 20 22 23 23 24 25 27 29 28 13 14 15 15 15 17 19 16 15 16 15 14 11 11 4 6 8 11 15 12 9 4 6 12 11 14 9
19 20 20 22 23 23 24 24 26 27 28 28 17 15 16 15 17 16 16 14 16 15 14 11 9 8 9 11 12 13 12 8 6 5 7 9 4 5
18 20 22 22 23 23 22 23 24 25 26 25 27 25 9 11 15 17 16 16 14 13 13 9 9 8 9 10 7 11 6 4 3 7 3 6 5 5

GFSNE_925_spd_048.txt.gz
Wind_Speed
11 9 6 8 11 16 17 17 12 2 3 15 19 16 14 10 14 17 18 14 15 19 24 26 26 23 21 22 24 27 27 27 28 28 28 29 29 30
10 7 4 13 13 16 16 17 17 17 4 15 18 21 22 23 21 16 17 17 17 19 21 25 26 24 24 23 25 26 26 26 26 26 25 25 25 26
8 1 11 19 18 17 19 19 21 19 15 20 19 18 18 16 15 16 16 18 19 18 20 23 25 28 30 26 27 26 24 24 23 22 22 22 24 25
13 13 16 14 18 20 20 23 23 24 24 21 24 24 25 24 21 20 20 19 20 22 21 25 30 32 28 25 28 28 27 25 24 23 23 22 23 25
17 15 16 17 21 22 24 23 23 26 27 27 25 24 24 22 22 23 22 21 21 19 22 21 18 21 25 30 29 28 28 28 25 22 21 22 23 25
16 16 19 19 23 24 25 26 28 30 29 28 28 28 26 24 23 22 19 21 24 17 17 21 23 28 25 22 24 30 29 30 26 24 25 25 25 26
17 19 21 28 24 26 28 29 28 29 27 24 24 23 23 22 20 20 15 14 17 16 16 18 22 19 20 24 26 26 25 19 19 21 21 23 23 25
17 23 26 21 24 24 25 28 31 35 31 26 27 24 25 20 20 15 13 13 8 19 16 21 20 22 27 24 24 18 16 18 20 22 22 20 22 23
20 20 21 20 24 27 28 28 29 30 32 40 29 29 28 32 28 22 20 18 18 17 12 21 23 26 26 20 22 22 26 26 24 24 21 24 25 26
16 18 21 24 24 25 29 33 33 31 28 29 34 38 38 36 29 26 21 18 20 17 16 18 24 25 22 21 20 20 24 21 20 20 23 24 28 30
15 17 20 23 22 24 33 31 30 32 33 33 34 34 35 32 29 27 18 12 11 16 16 19 24 22 16 19 23 20 17 20 21 24 26 26 27 29
18 23 25 27 27 27 29 26 27 29 29 33 32 30 28 27 29 29 26 17 14 10 21 18 22 12 9 19 11 23 23 27 26 25 25 23 24 25
18 19 21 24 30 35 36 39 35 34 34 32 30 29 23 22 26 28 32 29 21 22 24 17 17 13 13 18 20 23 22 24 28 25 21 24 24 26
18 21 24 29 37 36 34 34 34 34 28 26 26 24 24 22 27 24 23 27 28 28 20 19 15 11 13 16 17 21 24 24 22 26 22 23 25 24
19 22 29 31 31 35 35 35 32 30 26 24 24 26 24 27 20 21 25 22 24 24 24 20 17 17 16 20 18 20 22 25 21 19 26 21 27 21
22 26 26 25 23 27 26 27 26 25 26 25 25 25 21 21 22 20 20 23 19 21 19 21 22 19 20 20 21 23 24 18 25 20 20 25 23 7
22 23 22 19 21 23 26 26 28 29 31 29 25 22 19 17 17 17 21 17 16 15 16 17 19 19 20 19 21 23 24 22 16 16 20 25 18 7
18 18 18 19 20 22 24 26 27 29 29 39 15 16 17 15 15 17 21 19 16 16 15 16 19 16 14 15 18 21 16 10 13 16 19 18 14 6
13 16 17 19 20 20 21 24 26 28 32 29 31 22 18 14 15 16 17 16 16 16 15 17 17 12 2 4 16 9 8 11 13 16 16 16 16 10
14 16 17 19 20 20 21 23 26 28 29 32 32 22 16 14 12 15 18 17 17 15 14 18 17 15 13 4 3 13 17 15 12 13 16 17 12 2
14 15 18 19 20 22 23 24 24 25 28 29 30 29 23 12 13 14 16 16 18 16 12 16 14 10 5 7 6 13 15 12 12 11 11 10 8 6
13 16 18 19 20 21 22 24 24 24 27 26 27 28 30 29 11 12 15 16 17 16 16 14 8 8 6 10 14 14 11 10 10 11 6 5 3 1
17 17 17 19 20 22 21 24 24 24 25 26 26 26 27 27 29 18 14 16 17 17 15 14 11 9 10 12 14 11 10 8 12 12 9 6 3 3